Погода в Полоцке

Погода в Полоцке : погода сейчас, прогноз погоды и архив. Всё, что Вы хотите узнать о погоде в Полоцке!

Хотите узнать прогноз погоды в Полоцке? Тогда Вам сюда: Погода в Полоцке

Поиск расширенной информации на нашем сайте:

Другие новости

Новости СМИ2

Главная страница сайта

Новости сайта

02.10.2013

Напоминаем, что на нашем новом сайте вы можете получить высокодетализированные прогнозы погоды по пунктам России, СНГ и мира (включающие важные для авиации метеовеличины, такие как направление и скорость ветра, видимость, явления погоды, количество и форма облачности, нижняя и верхняя граница облачности), а также ознакомиться с разнообразными материалами по авиационной метеорологии и подборкой полезных ссылок на эту тему.

Сайт Метеоцентр.Азия посвящён разработке технологий оптимизации авиаметеорологического обслуживания, включая проектирование и перспективное создание нескольких автоматизированных авиаметеорологических систем:
- система выпуска высокодетальных прогностических карт явлений погоды для нижнего воздушного пространства по России и ближнему зарубежью;
- система верификации прогнозов TAF (выпускаемых синоптиками официальных АМСГ РФ и ближнего зарубежья) и AUTOTAF (выпускаемых сайтом Метеоцентр.Азия) - выявление ошибок, онлайн-сопоставление с фактической погодой METAR, автоматическое внесение коррективов в прогнозы при резком отклонении фактической погоды от прогноза, подсчёт оправдываемости прогнозов по элементам и в целом;
- система обработки, анализа и отображения авиаметеорологической информации для применения провайдерами метеорологической информации.


Погода в Полоцке - сегодня

Время (UTC), дата Ветер
(°,м/с) 
Видим.   Явления Облачность Т
(°С)
Тd
(°С)
f(%) Тe
(°С)
Pmin
(гПа)
dP
(гПа)
Po
(мм)
O2
(г/м3)
Тmin Tmax R s Состояние
почвы
06 25.05.17 220 (ЮЗ) 20000 м    4/3 1000 м верхняя 
[Cu hum|Ci ing]
+12.7 +7.8 72 +14  1012.3  0.6  747  286  +7.9       
09 25.05.17 250 (З) 20000 м    8/8 800 м 
[Cu med, cong]
+15.5 +4.3 47 +16  1013  0.8  748  285           
12 25.05.17 280 (З) 20000 м    5/5 1000 м 
[Sc]
+18.1 +5.9 45 +19  1012.7  -0.1  748  282           
15 25.05.17 260 (З) 20000 м    5/4 1000 м верхняя 
[Sc|Ci fib]
+17.9 +7.1 49 +19  1012.3  -0.5  748  282           
18 25.05.17 270 (З) 10 км    1/0 верхняя 
[Ci fib]
+16.1 +6.5 53 +17  1012.3  748  283    +19.3       
21 25.05.17 210 (ЮЗ) 10 км    ясно 
+10.4 +7.3 81 +12  1012.5  -0.1  747  289           
00 26.05.17 тихо ()   10 км    3/0 средняя 
[Ac trans]
+8.1 +6.5 90 +8  1012.3  -0.3  747  291           
03 26.05.17 260 (З) 10 км    10/4 600 м кучево-дожд., верхняя 
[Cb cap|Cc]
+10.2 +7.7 84 +11  1012  -0.2  747  289           
06 26.05.17 300 (СЗ) 10 км  слаб. ливневой дождь  10/8 800 м кучево-дожд., средняя 
[Cb cap|As op]
+11.4 +9.7 89 +14  1013.3  1.3  748  288  +7.8       
21 26.05.17 тихо ()   10 км    ясно 
+9.4 +7.1 86 +9  1016  0.8  750  291           
00 27.05.17 тихо ()   10 км    9/0 средняя 
[Ac trans]
+10 +7.6 85 +10  1016.9  751  290           
09 27.05.17 320 (СЗ) 20000 м    9/8 1350 м верхняя 
[Sc|Ci fib]
+17.6 +5.8 46 +19  1019.2  0.5  753  284           
15 27.05.17 300 (СЗ) 20000 м    10/5 600 м верхняя 
[Sc|Ci ing]
+18.6 +6.1 44 +20  1018  -0.7  752  283           
18 27.05.17 280 (З) 10 км    9/4 600 м средняя, верхняя 
[Sc|Ac trans|Ci fib]
+16.5 +5.8 49 +18  1018.4  0.3  752  285    +20.1       
21 27.05.17 280 (З) 10 км    9/0 средняя 
[Ac und]
+14.6 +6.5 58 +16  1019.1  0.5  752  287           
00 28.05.17 260 (З) 10 км    9/0 средняя 
[Ac trans]
+13.3 +6.7 64 +14  1018.6  -0.6  752  288           
09 28.05.17 280 (З) 20000 м    8/0 средняя, верхняя 
[Ac trans|Ci fib]
+19 +11 60 +22  1018.7  0.6  752  281           
12 28.05.17 260 (З) 20000 м    10/3 600 м средняя, верхняя 
[Sc|Ac trans|Ci fib]
+19.9 +11.4 58 +24  1018.4  -0.2  752  280           
15 28.05.17 260 (З) 20000 м    6/0 верхняя 
[Ci fib]
+23.6 +11.8 48 +27  1015.8  -2.3  750  276           
18 28.05.17 220 (ЮЗ) 10 км    4/0 верхняя 
[Ci fib]
+22.6 +11.3 49 +26  1013.9  -2  749  277    +24.1       
21 28.05.17 240 (ЮЗ) 10 км    5/0 верхняя 
[Ci fib]
+18.7 +12.1 65 +24  1013.5  -0.7  748  280           
00 29.05.17 230 (ЮЗ) 10 км    6/0 верхняя 
[Ci ing]
+16.2 +11.2 72 +20  1011.9  -1.6  747  282           
06 29.05.17 240 (ЮЗ) 10 км  в посл. час ливневой дождь  10/5 930 м кучево-дожд., средняя, верхняя 
[Cb cap|Ac trans|Ci ing]
+18.8 +10.6 59 +21  1007.3  -2.1  744  278  +15.5    0.0     
12 29.05.17 250 (З) 4{11}  10 км  ливневой дождь  10/10 900 м кучево-дожд. 
[Cb cap]
+17.6 +15.2 86 +27  1005.5  -0.7  743  278           
18 29.05.17 250 (З) 10 км  {ливн. осадки}  3/3 600 м 
[Sc diur, vesp]
+18.9 +13.8 72 +27  1005.9  743  277    +22.8     
Время (UTC), дата Ветер
(°,м/с) 
Видим.   Явления Облачность Т
(°С)
Тd
(°С)
f(%) Тe
(°С)
Pmin
(гПа)
dP
(гПа)
Po
(мм)
O2
(г/м3)
Тmin Tmax R s Состояние
почвы

Для получения пояснительной информации подведите курсор к названию столбца.

ПОГОДА в Полоцке - архив

Всё, что Вы хотите узнать о погоде в Полоцке - удобно и подробно!

Выберите нужную дату (начиная с 1 января 2015* года) и нажмите кнопку "Найти".
Будут отображены архивные сводки погоды по пункту Полоцк, начиная с указанной даты.


Отображать данные в формате CSV (для использования в таблицах Excel)


Внимание! Наш архив погоды предназначен исключительно для личного некоммерческого использования в познавательных целях. Если Вам необходимы официальные справки о состоянии погоды (для производственных, юридических, коммерческих и т.п. целей), обращайтесь в органы Росгидромета.

*Примечание: данная дата относится к архиву по метеостанциям СССР (Россия, СНГ, Балтия).
Архив по метеостанциям Зарубежной Европы и Азии (кроме Китая) хранится 10 дней, по другим регионам земного шара (Китай, Африка, Америка, Австралия, Океания) - 1 день.

Полоцк - район местоположения метеостанции


Название, широта, долгота, высота метеостанции:
Полоцк 55.5°ш. 28.8°д. 133 м над ур. моря [Беларусь]

Дополнительная информация

В oтличие oт бoльшинства пoгoдных сайтoв мы публикуем пoдрoбную метеoинфoрмацию в детальнoм прoфессиoнальнoм фoрмате.

Характеристики температуры и влажнoсти вoздуха измеряются на высoте 2 м в тени вдали oт зданий и деревьев.
Скoрoсть ветра измеряется на высoте 10 м (на урoвне рoста челoвека скoрoсть ветра ниже в 1.5-2 раза). Если метеoстанция нахoдится в гoрoде или в лесу, тo скoрoсть ветра занижена на 2-4 м/с пo сравнению с oткрытым местoм. Скoрoсть ветра над акватoриями крупных рек и oзёр, а также на вершинах хoлмoв на 2-5 м/с выше, чем в oбычных услoвиях.
Атмoсфернoе давление в разных тoчках местнoсти мoжет значительнo oтличаться oт давления на метеoстанции, в зависимoсти oт услoвий рельефа (при пoдъёме на 10 м давление пoнижается примернo на 1 мм рт.ст.).